Вернуться в каталог

STARLINK-5787

АктивенСвязьVLEO
NORAD 56004·PAYLOAD·🇺🇸 United States

Запущен Mar 24, 2023 с Cape Canaveral Space Force Station

Loading…

Ближайшие Пролёты (ближайшие 24 часа)

TLE

СвежийSource: CelesTrak SupGP

Эпоха: Sep 14, 2026, 20:54 UTC

1 56004C 23042U   26257.87131944  .00034699  00000+0  12569-2 0  2577
2 56004  43.0036  74.7226 0001891 274.5247 355.4348 15.27557910    16

Отслеживайте STARLINK-5787 в реальном времени с AllMySat

Download on the App Store